Vorticity
0 0 2 4 5 6 6 5 5 4 3 2 2 2 2 1 0 -1 -1 -0 0 1 2 3 3 4 4 4 5 5 5 5 5 5 6 6 6 6 6 6 6 6 6 6 6 5 5 4 3 2 2 2 2 2 2 3 3 3 4 4 4 5 5 5 5 5 5 5 5 5 4 4 4 4 4 4 4 4 4 4 4 4 4 4 4 4 4 4 4 4 4 4 4 4 4 4 5 5 5 5 5 4 4
1 0 2 4 5 5 5 4 3 3 3 3 3 3 2 1 0 -0 -1 -0 1 2 3 4 4 5 5 5 5 5 5 5 5 6 6 6 6 6 6 6 6 6 6 6 5 5 4 3 2 2 1 2 2 2 3 3 4 4 4 5 5 5 5 5 5 5 5 5 5 4 4 4 4 4 4 4 4 4 4 4 4 4 4 5 5 4 4 4 4 4 4 4 4 5 5 5 5 5 5 5 5 5 5
2 1 2 3 4 4 4 3 3 3 3 3 3 3 2 1 0 -0 -0 0 1 2 4 5 5 6 6 6 6 5 5 5 5 5 6 6 6 6 6 6 5 5 5 5 4 3 3 2 2 1 1 2 2 3 3 4 4 4 5 5 5 5 5 5 5 5 5 5 5 4 4 4 4 4 4 4 4 4 4 4 5 5 5 5 5 4 4 4 4 4 4 5 5 5 5 5 5 6 6 6 6 6 6
3 2 2 3 4 4 4 4 3 3 3 3 3 2 2 1 0 0 0 1 2 4 5 6 6 7 7 6 6 6 5 5 5 5 5 5 5 5 5 5 5 5 4 4 3 3 2 2 2 2 2 2 3 3 4 4 4 5 5 5 5 5 5 5 5 5 5 5 4 4 4 4 4 4 4 4 4 4 4 5 5 5 5 5 4 4 4 4 4 4 4 4 5 5 5 6 6 6 6 7 7 7 7
3 2 2 3 4 4 4 4 3 3 3 2 2 2 1 1 0 0 1 2 3 4 6 6 7 7 7 6 6 6 5 5 5 5 5 5 5 5 5 5 4 4 4 3 2 2 2 2 2 2 3 3 4 4 4 4 5 5 5 5 5 5 5 5 5 5 5 4 4 4 4 4 4 4 4 4 4 5 5 5 5 5 4 4 4 4 4 4 4 4 4 4 5 5 5 6 6 6 7 7 7 7 8
2 1 2 3 4 4 4 4 3 3 2 2 1 1 1 0 0 1 1 2 3 4 6 6 7 7 7 6 6 5 5 5 5 5 5 5 5 5 4 4 4 4 3 3 2 2 2 2 2 3 4 4 4 5 5 5 5 5 5 5 5 5 5 5 5 5 4 4 4 4 4 4 4 4 4 4 5 5 5 5 5 4 4 4 3 3 3 3 3 4 4 4 5 5 6 6 6 7 7 7 7 7 8
1 1 2 3 4 4 4 3 3 2 2 1 1 1 1 1 1 1 2 3 4 5 5 6 6 7 7 6 6 5 5 5 5 5 5 4 4 4 4 4 4 3 3 3 2 2 3 3 3 4 5 5 5 5 5 5 5 5 5 5 5 5 5 5 5 4 4 4 4 4 4 4 4 4 4 5 5 5 5 4 4 4 3 3 3 2 2 3 3 4 4 5 5 5 6 6 7 7 7 8 8 8 8
0 0 1 2 3 4 4 3 3 2 2 1 1 1 1 1 2 2 3 4 4 5 5 6 6 6 6 6 6 5 5 5 4 4 4 4 4 4 4 4 3 3 3 3 3 3 4 4 4 5 6 5 5 5 5 5 5 5 5 5 5 5 5 4 4 4 4 4 4 4 4 4 4 4 4 5 5 5 5 4 4 3 2 2 2 2 2 3 3 4 4 5 5 6 6 7 7 8 8 8 8 8 8
1 1 1 2 3 3 4 3 3 2 2 2 2 2 2 2 3 4 4 5 5 5 5 5 6 6 6 6 5 5 5 4 4 4 4 4 4 4 3 3 3 3 3 3 4 4 4 5 5 6 6 6 6 5 5 5 5 5 5 5 5 5 4 4 4 4 4 4 4 4 4 4 4 4 4 5 5 5 4 4 3 2 2 2 2 2 2 3 3 4 4 4 5 6 7 7 8 8 9 9 9 9 8
2 2 2 2 2 3 3 3 3 3 2 2 2 3 3 3 4 5 5 5 5 5 5 5 5 6 6 6 5 5 4 4 4 4 4 4 3 3 3 3 3 3 3 3 4 4 5 5 5 6 6 6 5 5 5 5 5 4 4 5 5 4 4 4 4 4 4 4 4 4 4 4 4 4 5 5 5 4 4 3 2 2 1 1 2 2 2 3 3 3 3 4 5 6 7 8 8 8 9 9 9 9 8
4 3 2 2 2 2 3 3 3 3 3 3 3 4 4 5 5 6 6 6 6 5 5 5 5 5 6 6 5 5 4 4 4 4 4 3 3 3 3 3 3 3 3 3 4 4 5 5 5 6 6 6 5 5 5 5 4 4 4 4 4 4 4 4 4 4 4 4 4 4 4 4 4 4 5 5 4 4 3 2 2 1 1 1 2 2 2 2 2 2 3 4 5 6 7 8 8 8 8 8 8 8 8
5 3 2 2 2 2 3 3 4 4 4 4 4 5 5 6 6 7 7 7 6 5 4 4 4 5 5 5 5 5 5 4 4 4 3 3 3 3 3 3 2 2 3 3 4 4 4 5 5 5 5 5 5 5 5 4 4 4 4 4 4 4 4 4 4 4 4 4 4 4 4 4 4 4 5 5 4 4 3 2 1 1 1 1 1 1 1 1 2 2 3 4 5 6 7 7 7 7 7 8 8 7 7
5 3 2 2 2 2 3 4 4 4 4 5 5 5 6 6 7 7 7 7 6 5 4 4 4 4 5 5 5 5 5 4 4 4 3 3 3 3 3 3 3 3 3 3 4 4 4 4 5 5 5 5 5 5 5 4 4 4 4 4 4 4 4 4 4 4 4 4 4 4 4 4 4 5 5 4 4 3 2 1 1 1 1 1 1 1 1 1 1 2 3 4 5 6 7 7 7 7 7 7 7 7 7
4 3 2 1 2 3 4 4 4 4 5 5 5 5 6 6 7 7 7 7 6 5 4 4 4 4 5 5 5 5 5 4 4 4 3 3 3 3 3 3 3 3 3 3 4 4 4 4 5 5 5 5 5 5 4 4 4 4 4 4 4 4 4 4 4 4 4 4 4 4 4 4 4 5 5 4 4 3 2 1 1 1 1 1 1 0 0 0 1 2 3 4 5 6 6 6 6 6 7 7 7 7 7
4 2 1 2 2 3 4 4 4 5 5 5 5 5 6 6 7 7 7 7 6 5 4 4 4 4 4 4 5 5 4 4 4 4 4 4 4 3 3 3 3 3 3 4 4 4 4 4 5 5 5 5 5 5 4 4 4 4 4 4 4 4 4 4 4 4 4 4 4 4 4 4 4 4 4 4 3 2 2 1 1 1 1 0 0 0 0 0 1 1 3 4 5 5 6 6 6 6 6 7 7 7 7
3 2 1 2 3 4 4 5 5 5 4 5 5 5 6 6 7 7 7 7 6 5 4 4 4 4 4 4 4 4 4 4 4 4 4 4 4 4 4 4 4 4 4 4 4 4 4 4 4 5 5 5 5 5 4 4 4 4 4 4 4 4 4 4 4 4 4 4 4 4 4 4 4 4 4 4 3 2 1 1 1 1 1 0 0 0 -0 0 0 1 2 4 4 5 5 5 6 6 6 7 7 7 7
3 2 1 2 3 4 4 5 5 5 4 4 5 5 5 6 7 7 7 7 6 5 4 4 3 3 4 4 4 4 4 4 4 4 4 4 4 4 4 4 4 4 4 4 4 4 4 4 4 4 4 5 5 5 4 4 4 4 4 4 4 4 4 4 4 4 4 4 4 4 4 4 4 4 4 4 3 2 1 1 1 1 0 0 0 -0 -0 -0 0 1 2 3 4 4 5 5 5 6 6 7 7 7 8
2 2 1 2 2 3 4 5 5 5 5 5 5 5 5 6 6 7 7 7 6 5 4 3 3 3 3 4 4 4 4 4 4 4 4 4 4 4 4 4 4 4 4 4 4 4 4 4 4 4 4 5 5 5 4 4 4 4 4 4 4 4 4 4 4 4 4 4 4 4 4 4 4 4 4 3 3 2 1 1 1 1 1 0 0 -0 -0 -0 0 1 2 3 3 4 5 5 5 6 6 7 7 7 8
2 1 0 0 1 2 4 4 5 5 5 5 5 5 5 6 6 6 7 7 6 5 4 4 3 3 3 3 4 4 4 4 4 4 4 4 4 4 4 4 4 4 4 4 4 4 4 4 4 4 4 5 5 4 4 4 4 4 4 4 4 4 4 4 4 4 4 4 4 4 4 4 4 4 4 3 2 2 1 1 1 1 1 0 0 -0 -0 -0 -0 1 1 2 3 4 4 5 5 6 6 6 7 7 8
1 -0 -1 -1 -0 1 3 4 5 5 5 5 5 5 5 5 6 6 7 6 6 5 4 4 3 3 3 3 3 4 4 4 4 4 4 4 5 5 5 4 4 4 4 4 4 4 4 4 4 4 4 4 4 4 4 4 4 4 4 4 4 4 4 4 4 3 4 4 4 4 4 4 4 4 3 3 2 2 2 1 1 1 1 0 0 -0 -0 -0 -0 0 1 2 3 3 4 5 5 5 6 6 7 7 8
1 -1 -3 -2 -1 1 3 4 5 5 5 5 5 5 5 5 5 6 6 6 6 5 5 4 4 3 3 3 3 3 4 4 4 4 4 4 5 5 5 5 5 4 4 4 4 4 4 4 4 4 4 4 4 4 4 4 4 4 4 4 4 4 4 4 3 3 3 4 4 4 3 3 3 3 3 3 3 2 2 2 1 1 1 1 0 -0 -0 -0 -0 0 1 1 2 3 4 5 5 5 6 6 7 7 8
1 -2 -3 -3 -2 0 2 4 5 5 6 5 5 5 5 5 5 5 6 6 6 6 5 4 4 3 3 3 3 3 4 4 4 4 4 4 5 5 5 5 5 4 4 4 4 4 4 4 4 4 4 4 5 5 4 4 4 4 4 4 4 4 3 3 3 3 3 3 3 3 3 3 3 3 3 3 3 2 2 2 2 1 1 1 0 0 -0 -0 -0 -0 0 1 2 3 4 4 5 5 6 6 7 7 7
0 -2 -3 -3 -2 0 2 3 4 5 6 6 5 5 5 5 5 5 5 6 6 6 5 5 4 4 3 3 3 3 3 4 4 4 4 4 5 5 5 5 5 4 4 4 4 4 4 4 4 4 4 4 5 5 5 4 4 4 4 4 4 4 3 3 3 3 3 3 3 3 3 3 3 3 3 3 3 2 2 2 2 2 1 1 1 0 -0 -0 -0 -0 0 1 2 2 3 4 5 5 6 6 7 7 7
-0 -2 -3 -2 -1 1 2 3 4 4 6 6 5 5 5 5 5 5 5 6 6 6 6 5 4 4 3 3 3 3 3 4 4 4 4 4 4 5 4 4 4 4 4 4 4 4 4 4 4 4 4 4 5 5 5 4 4 4 4 4 4 4 3 3 3 3 3 3 3 3 3 3 3 3 3 3 3 3 2 2 2 2 2 1 1 0 0 -0 -0 -0 -0 0 1 2 3 4 5 5 6 6 7 7 8
-0 -1 -1 -1 0 1 2 3 3 4 5 5 5 5 5 5 5 5 5 5 6 6 6 5 4 4 3 3 3 3 4 4 4 4 5 4 4 4 4 4 4 4 4 4 4 4 4 4 4 4 4 4 5 5 5 5 4 4 4 4 4 4 4 3 3 3 3 3 3 3 3 3 3 3 3 3 3 3 3 2 2 2 2 2 1 1 0 -0 -0 -0 -0 -0 1 2 3 4 4 5 6 6 7 7 8
0 0 1 1 2 2 3 3 3 4 5 5 5 5 5 5 5 5 5 5 5 6 6 6 5 4 4 3 3 3 4 4 4 4 5 5 4 4 4 4 4 4 4 4 4 4 4 4 4 4 4 4 5 5 5 5 5 4 4 4 4 4 4 4 3 3 3 3 3 3 3 3 3 3 3 3 3 3 3 3 2 2 2 2 1 1 0 0 -0 -0 -1 -0 0 1 3 4 4 5 6 6 7 8 9
1 1 2 2 2 3 3 3 3 3 4 5 5 5 5 5 5 5 5 5 5 5 6 5 5 5 4 4 4 3 4 4 4 4 4 5 4 4 4 4 4 4 4 4 4 4 4 4 4 4 4 4 5 5 5 5 5 4 4 4 4 4 4 4 3 3 3 3 3 3 3 3 3 3 3 3 3 3 3 3 3 3 2 2 2 1 1 0 0 -0 -0 -0 0 1 3 4 4 5 5 6 7 8 9
1 2 2 3 3 3 3 3 3 3 4 5 5 5 5 5 5 5 5 5 5 5 5 6 6 5 5 5 4 4 4 4 4 4 4 4 4 4 4 4 4 4 4 4 4 4 4 4 4 4 4 4 5 5 5 5 5 4 4 4 4 4 4 4 3 3 3 3 3 3 3 3 3 3 3 3 3 3 3 3 3 3 3 2 2 2 1 1 1 0 0 0 0 1 2 4 4 5 5 6 7 9 10
1 2 2 2 3 3 3 3 3 3 4 4 4 5 5 5 4 4 5 5 5 5 5 6 6 6 5 5 4 4 4 4 4 4 4 4 4 4 4 3 3 4 4 4 4 4 4 4 4 4 4 4 5 5 5 5 5 5 4 4 4 4 4 3 3 3 3 3 3 3 3 3 3 3 3 3 3 3 3 3 3 3 3 3 2 2 2 1 1 1 1 1 1 1 2 3 4 5 5 6 8 9 10
1 1 1 2 3 3 3 3 3 4 4 4 4 4 5 5 4 4 4 5 5 6 6 6 6 6 6 5 5 5 4 4 4 4 4 4 4 4 4 3 3 3 4 4 4 4 4 4 4 4 4 4 4 5 5 5 5 5 4 4 4 4 4 3 3 3 3 3 3 3 3 3 3 3 3 3 3 3 3 3 3 3 3 3 3 2 2 2 2 1 1 1 1 1 2 3 4 5 5 7 8 9 11
2 1 1 2 2 3 3 4 4 4 4 4 4 4 5 5 4 4 4 5 5 6 6 6 6 6 6 6 5 5 4 4 4 4 4 4 4 4 3 3 3 3 4 4 4 4 4 4 4 4 5 4 4 4 5 5 5 5 4 4 4 4 4 3 3 3 3 3 3 3 3 3 3 3 3 3 3 3 3 3 3 4 4 3 3 2 2 2 2 2 1 1 1 1 2 3 4 5 5 7 8 10 11
2 2 2 2 3 3 3 4 4 4 4 4 4 4 6 5 4 4 4 5 6 6 6 6 6 6 6 6 6 5 4 4 4 4 4 4 4 4 3 3 3 3 3 3 4 4 4 4 4 4 4 4 4 4 4 5 5 5 4 4 4 4 4 3 3 3 3 3 3 3 3 3 3 3 3 3 3 3 3 3 3 4 4 3 3 2 2 2 2 2 2 1 1 1 2 3 4 4 6 7 9 10 12
2 2 2 3 3 3 3 3 4 4 4 4 4 4 5 5 5 4 4 5 6 6 7 6 6 6 6 6 5 5 5 5 4 4 3 4 4 4 3 3 3 3 3 3 3 3 4 4 4 4 4 5 4 4 4 4 5 5 5 4 4 4 4 3 3 3 3 3 3 3 3 3 3 3 3 3 3 3 3 3 4 4 4 4 3 2 2 2 2 2 2 2 1 1 2 3 3 4 6 8 9 11 13
2 3 3 3 3 3 3 3 3 4 4 4 4 4 4 5 5 5 5 5 6 6 7 7 6 6 6 5 5 4 5 5 5 4 3 4 4 3 3 3 3 3 3 3 3 3 3 4 4 4 4 4 4 4 4 4 5 5 5 4 4 4 4 3 3 3 3 3 3 3 3 3 3 3 3 3 3 3 3 3 4 4 4 4 3 3 2 2 2 2 2 2 1 1 2 2 3 5 6 8 10 12 13
3 4 4 4 3 3 3 3 3 3 4 4 4 4 4 5 5 5 5 5 5 6 7 7 7 6 6 5 5 4 5 5 5 5 4 3 3 3 3 3 3 3 3 3 3 3 3 4 4 4 4 4 4 5 5 4 4 5 5 4 4 4 3 3 3 3 3 3 3 3 3 3 3 3 3 3 3 3 3 3 4 4 4 4 4 3 2 2 1 1 2 2 1 1 2 2 3 5 7 9 11 13 13
4 5 5 4 4 3 2 2 3 3 3 3 3 4 4 5 5 5 5 5 5 5 6 7 7 6 5 5 5 5 5 5 5 5 5 4 3 3 3 3 3 3 3 3 3 3 3 3 3 3 4 4 4 5 5 5 5 4 5 4 4 4 4 3 3 3 3 3 3 3 3 3 3 3 3 3 3 3 3 3 4 4 5 5 4 3 2 2 1 1 1 1 1 1 2 2 3 5 7 10 12 13 14
5 5 5 4 4 3 2 2 2 2 2 3 3 3 4 5 5 6 6 5 5 5 4 6 7 7 6 5 5 5 5 5 5 5 5 4 4 3 3 3 3 3 3 3 3 3 3 3 3 3 4 4 4 5 5 5 5 5 4 4 4 4 4 3 3 3 3 3 3 3 3 3 3 3 3 3 3 3 3 3 4 4 5 5 4 4 3 2 2 1 2 2 2 2 2 2 3 5 8 10 12 13 14
6 6 6 5 4 3 2 2 2 2 2 2 3 3 4 5 6 7 6 6 5 5 4 6 6 6 7 6 6 5 5 5 5 5 5 4 4 4 3 3 3 3 4 3 3 3 3 2 2 3 3 3 4 4 5 5 5 5 4 4 4 4 4 4 3 3 3 3 3 3 3 3 3 3 3 3 4 4 3 3 4 4 5 5 5 4 3 2 2 2 2 2 2 2 2 2 4 6 8 10 12 13 13
6 6 6 5 4 3 2 2 2 1 1 2 2 3 4 5 6 7 7 6 5 5 6 6 5 5 6 6 6 6 5 5 5 5 4 4 4 4 3 3 3 3 3 3 3 3 3 2 2 2 2 3 4 4 4 5 5 5 5 4 4 4 4 4 4 4 3 3 3 3 3 3 3 3 3 4 4 4 4 4 4 4 5 5 5 4 3 2 2 2 2 2 2 2 2 2 4 6 8 11 12 13 13
6 6 6 5 4 4 3 2 2 2 2 2 3 4 5 6 6 7 7 6 6 6 7 6 4 4 5 6 6 6 5 5 5 5 5 5 4 4 3 3 3 3 3 3 3 3 3 2 2 2 2 3 3 4 4 5 5 5 5 5 4 4 4 4 4 4 4 3 3 3 3 3 3 3 3 4 4 4 4 4 4 4 5 5 4 4 3 2 2 2 2 3 3 2 2 2 4 6 9 11 12 13 13
6 6 6 5 4 4 3 3 2 2 2 2 3 3 4 6 7 7 7 7 6 6 8 7 5 3 2 4 5 6 5 5 5 5 4 5 4 4 3 3 3 3 3 3 3 3 3 3 2 2 2 2 3 4 4 5 5 5 5 5 4 4 4 4 4 4 4 4 3 3 3 3 3 3 4 4 4 4 4 4 4 4 5 5 4 4 3 2 2 2 2 3 3 2 2 3 4 7 10 11 12 13 12
5 5 5 4 4 4 4 3 3 3 3 3 3 3 4 6 7 7 8 7 6 6 7 7 5 2 -0 3 5 6 5 5 5 5 4 5 4 4 4 4 3 3 3 3 3 3 3 3 2 2 2 2 3 4 4 4 5 5 5 5 4 4 4 4 4 4 4 3 3 3 3 3 3 4 4 4 5 4 4 4 4 4 4 4 4 4 3 2 2 2 2 3 3 2 2 3 5 7 10 12 12 12 12
4 3 3 3 3 3 4 4 4 4 3 3 3 4 4 6 7 8 9 8 7 6 7 5 2 -1 -2 2 5 6 5 5 5 5 5 5 4 4 4 4 4 3 2 2 3 3 3 3 2 2 2 2 3 4 4 4 5 5 5 5 4 4 4 4 4 4 4 3 3 3 3 3 3 4 4 5 5 5 4 4 3 3 4 4 4 4 3 3 2 2 2 3 3 2 2 3 5 8 11 12 12 12 11
3 2 2 2 2 3 4 4 4 4 4 4 4 4 5 5 6 7 8 8 7 6 6 4 0 -2 -1 3 6 7 6 5 5 5 5 5 5 4 5 4 4 3 2 2 3 3 3 2 2 2 3 3 3 4 4 4 5 5 5 5 5 4 4 4 4 4 4 4 3 3 3 3 3 4 5 6 6 5 5 4 3 3 3 3 3 4 3 3 3 3 3 3 2 2 2 3 5 8 11 12 12 12 11
2 1 1 1 2 2 4 4 4 5 5 5 5 5 5 5 6 7 7 8 8 7 5 3 0 -0 1 5 7 8 7 6 5 5 5 5 5 5 5 5 4 3 2 2 2 2 2 2 3 3 4 4 4 4 4 4 4 5 5 5 5 5 5 4 4 4 4 4 3 3 3 3 4 4 6 6 7 6 5 4 3 2 2 3 3 3 4 3 3 3 3 2 2 2 2 4 6 9 11 12 12 12 11
1 1 1 1 2 3 4 4 5 5 6 6 6 5 6 6 6 7 7 7 8 8 6 2 1 2 4 6 7 8 8 7 6 5 5 5 5 5 5 5 4 3 1 1 1 2 2 3 3 4 5 5 4 4 4 4 4 5 5 5 5 5 4 4 4 4 4 4 3 3 3 3 4 5 6 7 7 7 5 4 2 2 2 2 3 3 4 4 4 4 3 2 2 2 2 4 7 9 12 13 13 12 11
1 1 1 2 2 3 4 5 5 6 6 6 6 6 6 7 7 7 7 6 7 8 8 3 2 2 3 5 7 8 8 7 6 6 6 6 5 5 5 5 4 2 1 1 1 2 2 3 4 5 5 5 4 5 5 4 5 5 6 6 5 5 4 4 3 4 4 3 3 3 3 4 4 6 7 8 8 7 5 3 2 2 2 2 3 3 4 4 4 4 3 2 2 2 3 5 7 10 13 13 13 12 11
1 1 1 2 3 4 5 5 6 6 7 7 7 7 7 7 7 7 6 6 6 6 6 3 0 -1 1 5 8 10 8 7 6 6 5 6 6 6 6 4 2 1 1 1 2 2 2 3 4 5 5 4 4 5 5 5 5 6 6 5 5 4 4 3 3 3 3 4 4 4 4 4 5 6 8 9 9 7 6 4 2 2 2 2 3 4 4 5 5 4 3 2 2 3 4 6 8 11 13 14 13 13 11
1 1 1 2 3 4 5 6 7 7 7 7 7 7 6 7 7 7 6 6 5 5 4 3 0 -2 0 6 10 11 10 8 6 6 6 6 7 6 5 2 1 0 1 2 2 2 3 3 4 4 5 5 5 5 5 6 6 5 5 4 4 4 3 3 3 3 4 4 4 4 4 5 6 7 8 9 9 7 5 4 3 2 2 2 3 4 5 5 5 4 3 2 3 4 5 7 10 12 14 14 14 13 11
1 1 2 2 4 5 6 6 7 8 8 7 6 6 6 7 7 6 5 5 5 4 3 3 3 2 3 7 10 11 12 9 6 5 6 7 7 5 3 0 -0 0 1 2 3 3 3 4 4 5 5 5 5 5 5 5 5 4 4 4 3 3 3 3 3 3 4 4 4 5 5 5 6 7 8 9 8 7 4 3 2 2 2 2 3 5 6 5 4 3 2 2 4 5 7 9 11 13 15 15 14 13 10
2 2 2 3 4 5 6 7 8 8 7 6 6 6 7 7 7 7 5 4 4 4 2 1 2 5 8 8 9 10 12 10 8 6 6 8 7 4 0 -1 -1 0 1 2 4 5 5 5 5 5 6 6 6 6 5 5 4 4 4 3 3 3 3 3 4 4 4 4 5 5 6 6 6 7 8 9 8 6 3 2 1 1 2 3 4 5 6 5 4 3 2 3 5 7 9 11 13 14 15 15 14 12 9
2 2 3 3 4 4 6 7 8 7 6 5 5 6 7 8 8 7 6 4 3 2 2 -1 -0 3 10 10 10 10 12 11 9 8 8 7 5 3 1 -0 0 1 1 2 3 5 7 7 6 6 6 6 6 7 6 5 4 4 4 4 3 3 4 4 4 5 5 5 5 6 6 7 7 8 8 8 7 6 3 1 0 1 2 3 4 5 5 4 4 3 3 5 7 10 11 13 14 15 16 15 13 11 8
2 3 3 3 4 4 5 7 7 7 5 4 4 4 6 7 7 7 6 4 2 1 2 2 2 2 6 10 11 11 13 12 10 8 7 5 2 0 -1 1 2 2 2 2 2 3 8 6 5 5 7 6 6 6 6 5 4 4 4 4 4 4 4 5 6 6 7 7 7 7 7 8 8 8 8 8 7 5 2 0 -0 1 2 4 5 6 5 5 4 4 5 8 10 12 13 14 15 16 16 15 13 10 6
3 3 3 3 3 3 5 6 7 6 6 5 3 3 4 6 6 6 5 4 2 2 3 4 4 4 4 8 9 10 10 12 11 7 5 3 1 -0 -1 1 2 3 4 6 4 3 6 8 6 3 4 6 7 6 6 5 4 4 5 5 5 5 6 6 7 8 8 7 7 7 8 8 8 8 8 8 6 5 2 0 -1 -0 2 4 5 6 5 5 6 6 8 11 12 13 14 14 16 16 16 14 11 8 5
4 4 4 3 3 3 5 5 6 7 6 5 4 3 3 4 5 5 3 2 2 3 4 4 5 7 6 6 7 7 7 13 12 8 3 1 1 -0 -1 0 2 4 5 7 8 7 5 7 7 6 4 6 7 6 6 6 5 5 6 6 6 6 6 6 7 7 7 7 6 7 7 8 8 8 8 7 6 5 3 1 -1 -1 1 3 4 5 6 7 8 10 12 13 14 14 14 15 16 16 16 13 9 6 3
4 4 3 2 2 3 4 6 7 7 6 5 4 3 3 3 3 2 2 2 4 5 6 4 5 7 8 7 6 7 8 13 15 12 3 0 -1 -0 -1 1 3 4 5 6 7 8 6 6 7 9 10 10 8 6 5 5 5 4 5 5 5 5 5 6 6 6 6 6 6 7 8 8 8 8 8 7 6 4 3 1 -1 -0 1 3 5 6 7 9 11 13 14 14 14 13 14 15 16 16 14 11 7 4 1
3 2 1 1 1 2 4 6 7 7 6 4 2 1 1 1 2 2 2 4 6 7 7 5 4 5 9 11 11 10 10 13 14 13 7 1 -2 -1 1 3 5 7 9 9 9 7 4 6 7 7 7 10 10 8 4 4 5 4 4 4 5 5 5 5 6 6 6 6 6 7 8 8 9 8 8 7 6 4 2 0 -0 0 2 5 7 8 10 12 13 14 14 13 13 13 13 15 16 15 13 8 4 2 0
0 -1 -1 0 2 4 5 6 6 5 3 1 -0 -0 0 2 3 3 3 6 6 6 5 5 5 5 8 14 16 16 14 13 11 10 8 2 -1 -0 2 4 5 7 9 11 10 7 2 5 7 7 4 9 11 11 8 6 5 5 5 4 4 5 5 5 5 5 5 5 6 6 8 9 9 8 8 6 5 3 1 -0 -0 1 4 7 10 11 13 14 14 14 13 12 11 12 13 15 16 14 10 6 2 0 1
-1 0 2 4 5 5 5 4 2 -0 -2 -2 -0 1 3 4 4 4 4 5 5 4 5 6 7 8 9 14 19 20 17 13 10 8 5 3 1 2 4 6 6 7 9 10 10 9 7 6 5 6 7 7 9 11 12 10 7 6 5 5 5 5 5 5 5 5 4 5 5 6 8 9 9 8 7 6 4 2 0 -1 0 3 7 10 12 13 14 14 14 13 11 10 11 12 14 15 15 12 8 3 1 0 2
2 6 8 9 8 6 4 4 3 1 -0 1 3 5 6 5 5 5 5 5 5 5 6 6 7 9 11 15 19 20 18 13 10 8 8 4 2 3 7 8 8 9 9 9 9 8 7 6 5 4 5 7 7 7 9 10 9 8 6 5 5 6 6 5 5 4 4 5 6 7 8 9 9 8 7 5 3 1 -1 -0 2 5 10 12 14 14 14 13 11 10 9 10 11 13 15 16 14 10 5 2 0 1 3
9 12 14 14 12 11 9 11 13 14 12 8 8 8 9 8 7 6 6 4 4 4 6 6 8 10 13 15 18 19 17 13 9 8 11 8 6 6 10 10 10 10 9 8 8 7 6 5 5 4 4 4 5 6 6 7 7 7 7 6 6 6 6 6 5 5 4 5 6 7 9 9 9 8 7 5 3 1 0 2 4 8 11 13 14 13 12 10 9 8 9 10 12 14 15 15 12 8 3 1 0 2 4
Height
5881 5882 5882 5883 5883 5883 5884 5884 5884 5884 5885 5885 5885 5885 5886 5886 5886 5886 5886 5887 5887 5887 5887 5887 5887 5887 5887 5887 5887 5887 5888 5888 5888 5888 5888 5888 5888 5888 5888 5888 5888 5888 5888 5888 5888 5888 5888 5888 5888 5888 5888 5888 5888 5888 5888 5888 5888 5887 5887 5887 5887 5886 5886 5886 5885 5885 5885 5884 5884 5884 5883 5883 5882 5882 5882 5881 5881 5880 5880 5879 5879 5879 5878 5878 5877 5877 5876 5875 5875 5874 5873 5873 5872 5871 5870 5869 5869 5868 5867 5866 5865 5864 5863
5881 5881 5882 5882 5882 5883 5883 5884 5884 5884 5884 5884 5885 5885 5885 5885 5886 5886 5886 5886 5886 5886 5886 5886 5887 5887 5887 5887 5887 5887 5887 5887 5887 5887 5887 5887 5887 5887 5887 5887 5888 5888 5888 5888 5888 5888 5888 5888 5888 5888 5888 5887 5887 5887 5887 5887 5887 5887 5886 5886 5886 5886 5885 5885 5885 5884 5884 5884 5883 5883 5883 5882 5882 5881 5881 5880 5880 5880 5879 5879 5879 5878 5878 5877 5877 5876 5875 5875 5874 5874 5873 5872 5871 5870 5869 5869 5868 5867 5866 5865 5864 5863 5862
5880 5881 5881 5882 5882 5883 5883 5883 5883 5884 5884 5884 5884 5885 5885 5885 5885 5885 5886 5886 5886 5886 5886 5886 5886 5886 5886 5886 5886 5886 5886 5886 5886 5887 5887 5887 5887 5887 5887 5887 5887 5887 5887 5887 5887 5887 5887 5887 5887 5887 5887 5887 5887 5887 5886 5886 5886 5886 5886 5885 5885 5885 5884 5884 5884 5884 5884 5883 5883 5882 5882 5882 5881 5881 5880 5880 5879 5879 5879 5879 5878 5878 5877 5877 5876 5876 5875 5874 5874 5873 5872 5871 5871 5870 5869 5868 5867 5866 5865 5864 5863 5862 5861
5880 5880 5881 5881 5881 5882 5882 5883 5883 5883 5884 5884 5884 5884 5884 5884 5885 5885 5885 5885 5885 5885 5885 5885 5885 5885 5885 5886 5886 5886 5886 5886 5886 5886 5886 5886 5886 5886 5886 5886 5886 5887 5887 5887 5887 5887 5887 5887 5886 5886 5886 5886 5886 5886 5886 5886 5885 5885 5885 5885 5884 5884 5884 5884 5883 5883 5883 5882 5882 5882 5881 5881 5881 5880 5880 5879 5879 5879 5878 5878 5877 5877 5877 5876 5876 5875 5874 5874 5873 5873 5872 5871 5870 5869 5868 5867 5866 5865 5864 5864 5862 5861 5860
5879 5879 5880 5880 5881 5881 5882 5882 5882 5883 5883 5883 5883 5884 5884 5884 5884 5884 5884 5884 5884 5885 5885 5885 5885 5885 5885 5885 5885 5885 5885 5885 5885 5885 5885 5885 5886 5886 5886 5886 5886 5886 5886 5886 5886 5886 5886 5886 5886 5886 5886 5885 5885 5885 5885 5885 5885 5885 5884 5884 5884 5884 5883 5883 5883 5882 5882 5882 5881 5881 5881 5880 5880 5880 5879 5879 5879 5878 5878 5877 5877 5876 5876 5875 5875 5874 5874 5874 5873 5872 5871 5870 5869 5869 5868 5867 5866 5865 5864 5863 5862 5861 5859
5878 5879 5879 5879 5880 5880 5881 5881 5882 5882 5882 5883 5883 5883 5883 5884 5884 5884 5884 5884 5884 5884 5884 5884 5884 5884 5884 5884 5884 5885 5885 5885 5885 5885 5885 5885 5885 5885 5885 5885 5885 5885 5886 5886 5886 5885 5885 5885 5885 5885 5885 5885 5885 5884 5884 5884 5884 5884 5884 5884 5883 5883 5883 5882 5882 5882 5881 5881 5880 5880 5880 5880 5879 5879 5879 5878 5878 5878 5877 5877 5876 5876 5875 5875 5874 5874 5874 5873 5872 5871 5870 5869 5869 5868 5867 5866 5865 5864 5863 5862 5861 5860 5859
5877 5878 5879 5879 5879 5880 5880 5881 5881 5881 5882 5882 5882 5882 5883 5883 5883 5883 5883 5883 5883 5884 5884 5884 5884 5884 5884 5884 5884 5884 5884 5884 5884 5884 5884 5884 5884 5885 5885 5885 5885 5885 5885 5885 5885 5885 5885 5885 5885 5884 5884 5884 5884 5884 5884 5884 5884 5883 5883 5883 5883 5882 5882 5882 5881 5881 5881 5880 5880 5880 5879 5879 5879 5879 5878 5878 5877 5877 5877 5876 5876 5875 5875 5874 5874 5874 5873 5872 5871 5870 5870 5869 5868 5867 5866 5865 5864 5863 5862 5861 5860 5859 5858
5877 5877 5878 5878 5879 5879 5879 5880 5880 5881 5881 5881 5881 5882 5882 5882 5882 5882 5883 5883 5883 5883 5883 5883 5883 5883 5883 5883 5884 5884 5884 5884 5884 5884 5884 5884 5884 5884 5884 5884 5884 5884 5884 5884 5884 5884 5884 5884 5884 5884 5884 5884 5884 5883 5883 5883 5883 5883 5882 5882 5882 5882 5881 5881 5881 5880 5880 5880 5879 5879 5879 5879 5878 5878 5878 5877 5877 5876 5876 5875 5875 5875 5874 5874 5873 5873 5872 5871 5870 5870 5869 5868 5867 5866 5865 5864 5864 5862 5861 5860 5859 5858 5857
5876 5876 5877 5877 5878 5878 5879 5879 5879 5880 5880 5880 5881 5881 5881 5881 5881 5882 5882 5882 5882 5882 5882 5882 5882 5883 5883 5883 5883 5883 5883 5883 5883 5883 5883 5884 5884 5884 5884 5884 5884 5884 5884 5884 5884 5884 5884 5883 5883 5883 5883 5883 5883 5883 5882 5882 5882 5882 5882 5881 5881 5881 5881 5880 5880 5880 5879 5879 5879 5879 5878 5878 5878 5877 5877 5877 5876 5876 5875 5875 5874 5874 5874 5873 5873 5872 5871 5871 5870 5869 5869 5868 5867 5866 5865 5864 5863 5862 5860 5859 5858 5857 5856
5875 5875 5876 5876 5877 5877 5878 5878 5879 5879 5879 5880 5880 5880 5880 5880 5881 5881 5881 5881 5881 5881 5881 5882 5882 5882 5882 5882 5882 5882 5882 5883 5883 5883 5883 5883 5883 5883 5883 5883 5883 5883 5883 5883 5883 5883 5883 5883 5883 5882 5882 5882 5882 5882 5882 5881 5881 5881 5881 5881 5880 5880 5880 5880 5879 5879 5879 5879 5879 5878 5878 5877 5877 5877 5876 5876 5876 5875 5875 5874 5874 5874 5873 5873 5872 5871 5870 5870 5869 5869 5868 5867 5866 5865 5864 5863 5862 5861 5860 5859 5858 5856 5855
5874 5874 5875 5875 5876 5876 5877 5877 5878 5878 5879 5879 5879 5879 5879 5880 5880 5880 5880 5880 5880 5881 5881 5881 5881 5881 5881 5881 5882 5882 5882 5882 5882 5882 5882 5882 5882 5882 5882 5882 5882 5882 5882 5882 5882 5882 5882 5882 5882 5882 5881 5881 5881 5881 5881 5881 5880 5880 5880 5880 5880 5879 5879 5879 5879 5879 5878 5878 5878 5878 5877 5877 5876 5876 5876 5875 5875 5874 5874 5874 5873 5873 5872 5872 5871 5870 5870 5869 5869 5868 5867 5866 5865 5864 5863 5862 5861 5860 5859 5858 5857 5856 5854
5873 5873 5874 5874 5875 5875 5876 5877 5877 5877 5878 5878 5878 5879 5879 5879 5879 5879 5879 5879 5880 5880 5880 5880 5880 5880 5880 5881 5881 5881 5881 5881 5881 5881 5881 5881 5882 5882 5882 5882 5882 5882 5882 5882 5881 5881 5881 5881 5881 5881 5881 5881 5880 5880 5880 5880 5880 5879 5879 5879 5879 5879 5879 5879 5878 5878 5878 5878 5877 5877 5877 5876 5876 5875 5875 5875 5874 5874 5874 5873 5873 5872 5872 5871 5870 5870 5869 5868 5868 5867 5866 5865 5864 5864 5862 5861 5860 5859 5858 5857 5856 5855 5854
5872 5873 5873 5874 5874 5875 5875 5876 5876 5876 5877 5877 5877 5878 5878 5878 5878 5879 5879 5879 5879 5879 5879 5879 5879 5879 5880 5880 5880 5880 5880 5880 5880 5881 5881 5881 5881 5881 5881 5881 5881 5881 5881 5881 5881 5881 5880 5880 5880 5880 5880 5880 5880 5879 5879 5879 5879 5879 5879 5879 5878 5878 5878 5878 5878 5877 5877 5877 5876 5876 5876 5875 5875 5875 5874 5874 5874 5873 5873 5872 5872 5871 5871 5870 5870 5869 5869 5868 5867 5866 5865 5864 5864 5863 5862 5860 5859 5859 5857 5856 5855 5854 5853
5871 5872 5872 5873 5873 5874 5874 5875 5875 5875 5876 5876 5876 5877 5877 5877 5877 5878 5878 5878 5878 5878 5879 5879 5879 5879 5879 5879 5879 5879 5879 5879 5880 5880 5880 5880 5880 5880 5880 5880 5880 5880 5880 5880 5880 5880 5880 5879 5879 5879 5879 5879 5879 5879 5879 5878 5878 5878 5878 5878 5878 5877 5877 5877 5877 5877 5876 5876 5876 5875 5875 5875 5874 5874 5874 5873 5873 5873 5872 5872 5871 5871 5870 5870 5869 5869 5868 5867 5866 5865 5865 5864 5863 5862 5861 5860 5859 5858 5857 5855 5854 5853 5852
5870 5871 5871 5872 5872 5873 5873 5874 5874 5874 5875 5875 5875 5876 5876 5876 5876 5877 5877 5877 5877 5877 5878 5878 5878 5878 5878 5878 5878 5878 5879 5879 5879 5879 5879 5879 5879 5879 5879 5879 5879 5879 5879 5879 5879 5879 5879 5879 5879 5878 5878 5878 5878 5878 5878 5878 5878 5877 5877 5877 5877 5877 5876 5876 5876 5876 5876 5875 5875 5875 5874 5874 5874 5874 5873 5873 5872 5872 5871 5871 5870 5870 5869 5869 5868 5868 5867 5866 5865 5865 5864 5863 5862 5861 5860 5859 5858 5857 5856 5854 5853 5852 5851
5869 5869 5870 5871 5871 5872 5872 5873 5873 5874 5874 5874 5874 5875 5875 5875 5875 5876 5876 5876 5876 5876 5877 5877 5877 5877 5877 5877 5877 5877 5878 5878 5878 5878 5878 5878 5878 5878 5878 5879 5879 5879 5878 5878 5878 5878 5878 5878 5878 5878 5878 5877 5877 5877 5877 5877 5877 5877 5876 5876 5876 5876 5876 5875 5875 5875 5875 5874 5874 5874 5874 5873 5873 5873 5872 5872 5871 5871 5871 5870 5869 5869 5869 5868 5868 5867 5866 5865 5865 5864 5863 5862 5861 5860 5859 5858 5857 5856 5855 5854 5853 5851 5850
5868 5869 5869 5870 5870 5871 5871 5872 5872 5872 5873 5873 5874 5874 5874 5874 5874 5874 5875 5875 5875 5875 5876 5876 5876 5876 5876 5876 5876 5876 5876 5877 5877 5877 5877 5877 5877 5877 5877 5878 5878 5878 5878 5877 5877 5877 5877 5877 5877 5877 5877 5877 5876 5876 5876 5876 5876 5876 5876 5875 5875 5875 5875 5874 5874 5874 5874 5874 5874 5873 5873 5873 5872 5872 5871 5871 5871 5870 5870 5869 5869 5868 5868 5867 5867 5866 5865 5864 5864 5863 5862 5861 5860 5859 5858 5857 5856 5855 5854 5853 5852 5850 5849
5867 5867 5868 5869 5869 5869 5870 5870 5871 5871 5872 5872 5872 5873 5873 5873 5873 5874 5874 5874 5874 5874 5875 5875 5875 5875 5875 5875 5875 5875 5876 5876 5876 5876 5876 5876 5876 5876 5876 5876 5876 5876 5877 5876 5876 5876 5876 5876 5876 5876 5876 5876 5876 5875 5875 5875 5875 5875 5875 5874 5874 5874 5874 5874 5874 5874 5873 5873 5873 5872 5872 5872 5871 5871 5871 5870 5870 5869 5869 5868 5868 5867 5867 5866 5866 5865 5864 5864 5863 5862 5861 5860 5859 5858 5857 5856 5855 5854 5853 5852 5851 5849 5848
5866 5866 5867 5867 5868 5869 5869 5869 5870 5870 5870 5871 5871 5871 5872 5872 5872 5873 5873 5873 5873 5874 5874 5874 5874 5874 5874 5874 5874 5874 5875 5875 5875 5875 5875 5875 5875 5875 5875 5875 5875 5875 5875 5875 5875 5875 5875 5875 5875 5875 5875 5875 5875 5874 5874 5874 5874 5874 5874 5874 5873 5873 5873 5873 5873 5873 5872 5872 5872 5871 5871 5871 5870 5870 5870 5869 5869 5869 5868 5868 5867 5866 5866 5865 5865 5864 5863 5863 5862 5861 5860 5859 5858 5857 5856 5855 5854 5853 5852 5851 5849 5849 5847
5864 5865 5866 5866 5867 5867 5868 5868 5869 5869 5869 5869 5870 5870 5871 5871 5871 5871 5872 5872 5872 5872 5873 5873 5873 5873 5873 5873 5873 5874 5874 5874 5874 5874 5874 5874 5874 5874 5874 5874 5874 5874 5874 5874 5874 5874 5874 5874 5874 5874 5874 5874 5874 5874 5874 5873 5873 5873 5873 5873 5872 5872 5872 5872 5871 5871 5871 5871 5871 5871 5870 5870 5869 5869 5869 5869 5868 5868 5867 5867 5866 5865 5865 5864 5864 5863 5862 5862 5861 5860 5859 5858 5857 5856 5855 5854 5853 5852 5851 5850 5849 5847 5846
5864 5864 5864 5865 5865 5866 5867 5867 5867 5868 5868 5869 5869 5869 5869 5870 5870 5870 5871 5871 5871 5871 5871 5872 5872 5872 5872 5872 5872 5872 5873 5873 5873 5873 5873 5873 5873 5873 5873 5873 5873 5873 5873 5873 5874 5873 5873 5873 5873 5873 5873 5873 5873 5873 5873 5872 5872 5872 5872 5871 5871 5871 5871 5871 5870 5870 5870 5870 5870 5870 5869 5869 5869 5868 5868 5868 5867 5867 5866 5866 5865 5864 5864 5864 5863 5862 5862 5861 5860 5859 5858 5857 5856 5855 5854 5853 5852 5851 5850 5849 5848 5846 5845
5862 5863 5863 5864 5864 5865 5865 5866 5866 5866 5867 5867 5868 5868 5868 5869 5869 5869 5869 5870 5870 5870 5870 5870 5871 5871 5871 5871 5871 5871 5871 5872 5872 5872 5872 5872 5872 5872 5872 5872 5872 5872 5872 5872 5872 5872 5872 5872 5872 5872 5872 5872 5872 5872 5872 5871 5871 5871 5871 5870 5870 5870 5870 5870 5870 5869 5869 5869 5869 5869 5869 5868 5868 5867 5867 5866 5866 5866 5865 5865 5864 5864 5863 5863 5862 5861 5861 5860 5859 5858 5857 5856 5855 5854 5853 5852 5851 5850 5849 5848 5846 5845 5844
5861 5861 5862 5863 5863 5864 5864 5864 5864 5865 5865 5866 5866 5867 5867 5867 5868 5868 5868 5869 5869 5869 5869 5869 5869 5869 5870 5870 5870 5870 5870 5870 5871 5871 5871 5871 5871 5871 5871 5871 5871 5871 5871 5871 5871 5871 5871 5871 5871 5871 5871 5871 5871 5871 5870 5870 5870 5870 5870 5870 5869 5869 5869 5869 5869 5869 5868 5868 5868 5868 5868 5868 5868 5867 5866 5865 5865 5864 5864 5864 5863 5863 5862 5862 5861 5860 5860 5859 5858 5857 5856 5855 5854 5853 5852 5851 5850 5849 5848 5847 5845 5844 5843
5859 5860 5860 5861 5862 5862 5863 5863 5863 5864 5864 5864 5865 5865 5866 5866 5866 5867 5867 5867 5868 5868 5868 5868 5868 5869 5869 5869 5869 5869 5869 5869 5869 5870 5870 5870 5870 5870 5870 5870 5870 5870 5870 5870 5870 5870 5870 5870 5870 5870 5869 5869 5869 5869 5869 5869 5869 5869 5869 5869 5869 5868 5868 5868 5868 5868 5867 5867 5867 5867 5867 5866 5866 5865 5865 5864 5864 5864 5863 5863 5862 5861 5861 5860 5860 5859 5859 5858 5857 5856 5855 5854 5853 5852 5851 5850 5849 5848 5847 5846 5844 5843 5842
5858 5859 5859 5859 5860 5861 5861 5861 5862 5862 5863 5863 5864 5864 5864 5865 5865 5865 5866 5866 5866 5866 5867 5867 5867 5867 5868 5868 5868 5868 5868 5868 5869 5869 5869 5869 5869 5869 5869 5869 5869 5869 5869 5869 5869 5869 5869 5869 5869 5869 5869 5868 5868 5868 5868 5868 5868 5868 5868 5868 5868 5868 5867 5867 5867 5867 5866 5866 5866 5866 5866 5865 5865 5864 5864 5864 5863 5863 5862 5861 5861 5860 5860 5859 5859 5858 5858 5857 5856 5855 5854 5853 5852 5851 5850 5849 5848 5847 5846 5844 5843 5842 5841
5856 5857 5858 5858 5859 5859 5859 5860 5860 5861 5861 5862 5862 5863 5863 5863 5864 5864 5864 5865 5865 5865 5865 5866 5866 5866 5866 5866 5867 5867 5867 5867 5867 5867 5867 5868 5868 5868 5868 5868 5868 5868 5868 5868 5868 5868 5868 5868 5868 5868 5867 5867 5867 5867 5867 5867 5867 5867 5867 5867 5867 5866 5866 5866 5866 5866 5865 5865 5865 5865 5864 5864 5864 5863 5863 5862 5862 5861 5861 5860 5860 5859 5859 5858 5858 5857 5856 5856 5855 5854 5853 5852 5851 5850 5849 5848 5847 5846 5845 5844 5842 5841 5840
5855 5855 5856 5857 5857 5858 5858 5859 5859 5859 5860 5860 5861 5861 5862 5862 5862 5863 5863 5863 5864 5864 5864 5864 5864 5865 5865 5865 5865 5866 5866 5866 5866 5866 5866 5866 5866 5866 5866 5866 5866 5866 5867 5867 5867 5867 5867 5866 5866 5866 5866 5866 5866 5866 5866 5866 5866 5865 5865 5865 5865 5865 5865 5865 5865 5864 5864 5864 5864 5864 5863 5863 5863 5862 5862 5861 5860 5860 5859 5859 5859 5858 5857 5857 5856 5856 5855 5854 5854 5853 5852 5851 5850 5849 5848 5847 5846 5844 5844 5842 5841 5840 5839
5853 5854 5854 5855 5855 5856 5856 5857 5857 5858 5858 5859 5859 5860 5860 5860 5861 5861 5862 5862 5862 5862 5863 5863 5863 5864 5864 5864 5864 5864 5864 5864 5865 5865 5865 5865 5865 5865 5865 5865 5865 5865 5865 5865 5865 5865 5865 5865 5865 5865 5865 5865 5865 5865 5865 5864 5864 5864 5864 5864 5864 5864 5864 5864 5864 5863 5863 5863 5862 5862 5862 5862 5861 5861 5860 5860 5859 5859 5859 5858 5857 5857 5856 5855 5855 5854 5854 5853 5852 5851 5851 5850 5849 5848 5847 5845 5844 5843 5842 5841 5840 5839 5837
5851 5852 5853 5853 5854 5854 5855 5855 5856 5856 5857 5857 5858 5858 5859 5859 5859 5860 5860 5860 5861 5861 5861 5861 5862 5862 5862 5863 5863 5863 5863 5863 5864 5864 5864 5864 5864 5864 5864 5864 5864 5864 5864 5864 5864 5864 5864 5864 5864 5864 5864 5864 5864 5864 5864 5864 5863 5863 5863 5863 5863 5863 5863 5862 5862 5862 5862 5861 5861 5861 5860 5860 5860 5860 5859 5859 5858 5858 5857 5857 5856 5856 5855 5854 5854 5853 5852 5852 5851 5850 5849 5848 5847 5846 5845 5844 5843 5842 5841 5839 5838 5837 5836
5849 5850 5851 5851 5852 5853 5853 5854 5854 5854 5855 5855 5856 5857 5857 5858 5858 5858 5859 5859 5859 5859 5860 5860 5860 5861 5861 5861 5861 5862 5862 5862 5862 5862 5862 5862 5863 5863 5863 5863 5863 5863 5863 5863 5863 5863 5863 5863 5863 5863 5863 5863 5863 5863 5862 5862 5862 5862 5862 5862 5862 5861 5861 5861 5861 5860 5860 5860 5860 5859 5859 5859 5859 5858 5858 5858 5857 5857 5856 5856 5855 5854 5854 5853 5852 5852 5851 5850 5849 5849 5848 5847 5846 5845 5844 5843 5842 5841 5839 5838 5837 5836 5834
5848 5848 5849 5849 5850 5851 5851 5852 5852 5853 5853 5854 5854 5855 5855 5856 5856 5857 5857 5857 5858 5858 5858 5859 5859 5859 5859 5860 5860 5860 5860 5860 5861 5861 5861 5861 5861 5861 5861 5861 5861 5861 5861 5861 5861 5861 5861 5861 5861 5861 5861 5861 5861 5861 5861 5861 5861 5861 5861 5861 5860 5860 5860 5860 5860 5859 5859 5859 5859 5858 5858 5858 5857 5857 5857 5856 5856 5855 5855 5854 5854 5853 5853 5852 5851 5850 5850 5849 5848 5847 5846 5845 5844 5844 5843 5842 5840 5839 5838 5837 5835 5834 5833
5846 5846 5847 5848 5848 5849 5849 5850 5850 5851 5852 5852 5853 5853 5854 5854 5854 5855 5855 5856 5856 5856 5857 5857 5857 5858 5858 5858 5858 5859 5859 5859 5859 5859 5859 5859 5860 5860 5860 5860 5860 5860 5860 5860 5860 5860 5860 5860 5860 5860 5860 5860 5860 5860 5859 5859 5859 5859 5859 5859 5859 5859 5859 5859 5859 5858 5858 5858 5858 5857 5857 5857 5856 5856 5855 5855 5854 5854 5854 5853 5853 5852 5852 5851 5850 5849 5849 5848 5847 5846 5845 5844 5843 5842 5841 5840 5839 5838 5837 5835 5834 5833 5832
5844 5844 5845 5846 5846 5847 5848 5848 5849 5849 5850 5850 5851 5851 5852 5853 5853 5853 5854 5854 5854 5855 5855 5856 5856 5856 5856 5857 5857 5857 5857 5857 5858 5858 5858 5858 5858 5858 5858 5858 5858 5858 5858 5859 5859 5858 5859 5859 5859 5859 5859 5859 5859 5858 5858 5858 5858 5858 5858 5858 5858 5858 5858 5858 5857 5857 5857 5857 5857 5856 5856 5856 5855 5855 5854 5854 5854 5853 5853 5852 5851 5851 5850 5850 5849 5848 5848 5847 5846 5845 5844 5843 5842 5841 5839 5839 5838 5836 5835 5834 5833 5831 5830
5842 5842 5843 5844 5844 5845 5846 5846 5847 5848 5848 5849 5849 5850 5850 5851 5851 5852 5852 5853 5853 5853 5854 5854 5854 5854 5855 5855 5855 5855 5855 5856 5856 5856 5856 5857 5857 5857 5857 5857 5857 5857 5857 5857 5857 5857 5857 5857 5857 5857 5857 5857 5857 5857 5857 5856 5856 5857 5857 5856 5856 5856 5856 5856 5856 5856 5856 5856 5856 5855 5855 5855 5854 5854 5854 5853 5853 5852 5851 5851 5850 5850 5849 5849 5848 5847 5846 5845 5844 5844 5843 5841 5840 5839 5838 5837 5836 5835 5834 5833 5831 5830 5829
5840 5840 5841 5842 5843 5843 5844 5844 5845 5846 5846 5847 5847 5848 5849 5849 5849 5850 5850 5851 5851 5851 5852 5852 5852 5853 5853 5853 5853 5854 5854 5854 5854 5854 5855 5855 5855 5855 5855 5855 5855 5855 5855 5855 5855 5855 5855 5855 5855 5855 5856 5856 5856 5856 5855 5855 5855 5855 5855 5855 5855 5855 5855 5855 5855 5855 5854 5854 5854 5854 5854 5854 5853 5853 5853 5852 5851 5851 5850 5850 5849 5849 5848 5847 5846 5845 5845 5844 5843 5842 5841 5840 5839 5838 5837 5836 5834 5834 5832 5831 5830 5829 5828
5838 5839 5839 5840 5841 5841 5842 5843 5843 5844 5844 5845 5845 5846 5847 5847 5848 5848 5849 5849 5849 5849 5850 5850 5850 5851 5851 5851 5852 5852 5852 5852 5853 5853 5853 5853 5853 5853 5854 5854 5854 5854 5854 5854 5854 5854 5854 5854 5854 5854 5854 5854 5854 5854 5854 5854 5854 5854 5854 5854 5854 5854 5854 5853 5853 5853 5853 5853 5853 5853 5853 5852 5852 5852 5851 5851 5850 5850 5849 5849 5848 5847 5846 5846 5845 5844 5843 5842 5842 5841 5840 5839 5838 5837 5835 5834 5833 5832 5831 5830 5829 5827 5826
5836 5837 5837 5838 5839 5839 5840 5841 5841 5842 5842 5843 5844 5844 5845 5845 5846 5846 5847 5847 5847 5848 5848 5848 5849 5849 5849 5849 5850 5850 5850 5851 5851 5851 5851 5851 5852 5852 5852 5852 5852 5852 5852 5852 5852 5852 5852 5852 5852 5852 5852 5852 5852 5852 5853 5853 5852 5852 5852 5852 5852 5852 5852 5852 5852 5852 5852 5852 5852 5851 5851 5851 5851 5850 5850 5849 5849 5848 5848 5847 5846 5845 5845 5844 5843 5843 5842 5841 5840 5839 5838 5837 5836 5835 5834 5833 5832 5830 5829 5828 5827 5826 5824
5834 5834 5835 5836 5837 5837 5838 5839 5839 5840 5840 5841 5842 5842 5843 5843 5844 5844 5844 5845 5845 5846 5846 5846 5847 5847 5847 5848 5848 5849 5849 5849 5849 5849 5849 5850 5850 5850 5850 5850 5850 5850 5850 5850 5850 5850 5850 5850 5850 5850 5850 5850 5851 5851 5851 5851 5851 5851 5851 5851 5851 5851 5851 5850 5850 5850 5850 5850 5850 5850 5850 5849 5849 5849 5848 5848 5847 5847 5846 5845 5845 5844 5843 5843 5842 5841 5840 5839 5838 5837 5836 5835 5834 5834 5832 5831 5830 5829 5828 5827 5825 5824 5823
5832 5833 5833 5834 5835 5835 5836 5837 5837 5838 5838 5839 5839 5840 5841 5841 5842 5842 5843 5843 5843 5844 5844 5844 5845 5845 5846 5846 5846 5847 5847 5847 5847 5848 5848 5848 5848 5848 5848 5848 5848 5848 5848 5848 5849 5849 5849 5849 5849 5849 5849 5849 5849 5849 5849 5849 5849 5849 5849 5849 5849 5849 5849 5849 5849 5849 5849 5849 5849 5849 5848 5848 5848 5847 5847 5846 5846 5845 5844 5844 5843 5842 5842 5841 5840 5839 5839 5838 5837 5836 5835 5834 5833 5832 5831 5829 5828 5827 5826 5825 5824 5823 5822
5830 5830 5831 5832 5833 5833 5834 5834 5835 5835 5836 5837 5837 5838 5839 5839 5839 5840 5840 5841 5841 5842 5842 5843 5843 5844 5844 5844 5845 5845 5845 5845 5845 5845 5846 5846 5846 5846 5846 5846 5846 5846 5846 5846 5847 5847 5847 5847 5847 5847 5847 5847 5847 5847 5847 5848 5848 5848 5848 5848 5848 5848 5848 5847 5847 5847 5847 5847 5847 5847 5847 5846 5846 5846 5845 5845 5844 5844 5843 5842 5842 5841 5840 5839 5839 5838 5837 5836 5835 5834 5833 5832 5831 5830 5829 5828 5826 5825 5824 5823 5822 5821 5820
5828 5828 5829 5830 5830 5831 5832 5832 5833 5834 5834 5834 5835 5836 5836 5837 5837 5838 5838 5839 5839 5839 5840 5840 5841 5842 5842 5843 5843 5843 5843 5843 5844 5844 5844 5844 5844 5844 5844 5844 5844 5844 5844 5844 5844 5844 5845 5845 5845 5845 5845 5845 5845 5845 5846 5846 5846 5846 5846 5847 5847 5846 5846 5846 5846 5846 5845 5845 5845 5845 5845 5845 5844 5844 5844 5843 5843 5842 5841 5841 5840 5839 5839 5838 5837 5836 5835 5834 5834 5833 5832 5831 5829 5828 5827 5826 5825 5824 5822 5821 5820 5819 5818
5825 5826 5827 5827 5828 5829 5829 5830 5831 5831 5832 5832 5833 5833 5834 5834 5835 5835 5836 5836 5837 5838 5838 5838 5839 5839 5840 5840 5841 5841 5841 5841 5841 5841 5842 5842 5842 5842 5842 5842 5842 5842 5842 5842 5842 5843 5843 5843 5843 5843 5843 5843 5843 5844 5844 5844 5844 5844 5844 5845 5845 5845 5845 5845 5845 5844 5844 5844 5844 5844 5843 5843 5843 5843 5842 5841 5841 5840 5840 5839 5838 5838 5837 5836 5835 5834 5834 5833 5832 5831 5830 5829 5828 5827 5825 5824 5823 5822 5820 5819 5818 5817 5816
5823 5824 5824 5825 5826 5827 5827 5828 5828 5829 5829 5830 5830 5831 5832 5832 5832 5833 5833 5834 5835 5835 5836 5836 5836 5837 5837 5838 5839 5839 5839 5839 5839 5839 5839 5839 5840 5840 5840 5840 5840 5840 5840 5840 5840 5840 5840 5841 5841 5841 5841 5841 5841 5842 5842 5842 5842 5842 5842 5843 5843 5843 5844 5844 5844 5844 5843 5843 5842 5842 5842 5841 5841 5841 5840 5840 5839 5839 5838 5837 5837 5836 5835 5834 5833 5833 5832 5831 5830 5829 5828 5827 5826 5825 5824 5822 5821 5820 5819 5818 5816 5815 5814
5820 5821 5822 5823 5824 5824 5825 5825 5826 5826 5827 5827 5828 5829 5829 5829 5830 5830 5831 5832 5833 5833 5834 5834 5834 5834 5834 5835 5836 5836 5837 5837 5837 5837 5837 5837 5837 5838 5838 5838 5838 5838 5838 5838 5838 5838 5838 5839 5839 5839 5839 5839 5840 5840 5840 5840 5840 5840 5840 5841 5841 5841 5841 5841 5842 5842 5842 5842 5841 5840 5840 5840 5839 5839 5839 5838 5837 5837 5836 5836 5835 5834 5833 5832 5831 5830 5829 5829 5828 5827 5826 5825 5824 5823 5822 5821 5819 5818 5817 5816 5815 5814 5812
5818 5819 5819 5820 5821 5822 5822 5823 5824 5824 5824 5825 5826 5826 5827 5827 5828 5828 5829 5829 5830 5831 5831 5831 5831 5831 5832 5833 5833 5834 5834 5834 5834 5835 5835 5835 5835 5835 5835 5835 5835 5835 5835 5836 5836 5836 5836 5836 5837 5837 5837 5838 5838 5838 5839 5839 5839 5839 5839 5839 5839 5839 5839 5839 5839 5839 5839 5839 5839 5839 5839 5838 5838 5837 5837 5836 5836 5835 5834 5834 5833 5832 5831 5830 5829 5829 5828 5827 5826 5825 5824 5823 5822 5821 5820 5819 5818 5816 5815 5814 5813 5812 5811
5815 5816 5817 5818 5819 5819 5820 5820 5821 5822 5822 5823 5823 5824 5824 5825 5825 5826 5826 5827 5828 5829 5829 5829 5829 5829 5829 5830 5831 5831 5832 5832 5832 5833 5833 5833 5833 5833 5833 5833 5833 5834 5834 5834 5834 5834 5834 5834 5835 5835 5836 5836 5837 5837 5837 5837 5837 5837 5837 5837 5837 5837 5837 5837 5837 5837 5837 5837 5837 5837 5837 5836 5836 5835 5835 5834 5834 5833 5833 5832 5831 5830 5829 5829 5827 5826 5825 5824 5824 5823 5822 5821 5820 5819 5818 5817 5816 5814 5813 5812 5811 5810 5809
5813 5814 5814 5815 5816 5817 5817 5818 5819 5819 5820 5820 5821 5821 5822 5823 5823 5824 5824 5825 5825 5826 5826 5826 5826 5826 5827 5827 5828 5829 5829 5829 5830 5830 5830 5830 5830 5830 5831 5831 5831 5831 5831 5831 5831 5832 5832 5833 5833 5834 5834 5835 5835 5835 5835 5835 5835 5835 5835 5835 5835 5835 5835 5835 5835 5834 5834 5834 5834 5834 5834 5834 5834 5833 5833 5832 5831 5831 5830 5830 5829 5829 5827 5826 5825 5824 5823 5822 5821 5820 5819 5819 5818 5817 5816 5815 5814 5813 5811 5810 5809 5808 5807
5810 5811 5812 5813 5813 5814 5815 5815 5816 5817 5818 5818 5819 5819 5819 5820 5821 5821 5822 5822 5823 5824 5824 5824 5824 5824 5824 5825 5826 5826 5827 5827 5828 5828 5829 5828 5828 5828 5829 5829 5829 5829 5829 5829 5829 5830 5830 5831 5832 5832 5833 5833 5834 5834 5834 5834 5833 5833 5833 5833 5833 5833 5833 5833 5832 5832 5832 5832 5832 5832 5832 5832 5832 5831 5831 5830 5829 5829 5828 5827 5827 5826 5825 5824 5823 5822 5821 5820 5819 5818 5817 5816 5815 5814 5814 5813 5812 5810 5809 5808 5807 5806 5805
5807 5808 5809 5810 5811 5811 5812 5813 5814 5814 5815 5815 5816 5817 5817 5818 5818 5819 5819 5820 5820 5821 5821 5821 5821 5822 5822 5823 5824 5824 5824 5825 5825 5826 5826 5826 5826 5826 5826 5827 5827 5827 5827 5827 5828 5828 5829 5829 5830 5830 5831 5831 5831 5832 5832 5831 5831 5831 5831 5831 5831 5831 5831 5830 5830 5830 5829 5829 5829 5829 5829 5829 5829 5829 5829 5829 5828 5827 5826 5825 5824 5824 5823 5822 5821 5820 5819 5818 5817 5816 5815 5814 5813 5812 5811 5810 5809 5808 5807 5806 5805 5804 5803
5804 5805 5806 5807 5808 5809 5810 5811 5812 5812 5812 5813 5813 5814 5814 5815 5816 5816 5817 5817 5818 5818 5819 5819 5819 5819 5820 5821 5821 5822 5822 5822 5823 5823 5824 5824 5824 5824 5824 5824 5824 5824 5825 5825 5826 5826 5827 5827 5828 5828 5828 5829 5829 5829 5829 5829 5829 5829 5829 5829 5829 5828 5828 5828 5828 5827 5827 5827 5827 5827 5827 5826 5826 5826 5826 5826 5826 5826 5824 5823 5822 5822 5821 5820 5819 5818 5817 5816 5815 5814 5813 5812 5811 5810 5809 5808 5807 5806 5805 5804 5803 5802 5801
5801 5802 5804 5804 5805 5806 5807 5808 5809 5809 5809 5810 5810 5811 5812 5813 5813 5814 5814 5814 5814 5815 5815 5816 5817 5817 5818 5818 5819 5819 5819 5819 5820 5820 5821 5821 5821 5822 5821 5821 5821 5822 5823 5824 5824 5824 5825 5825 5825 5826 5826 5826 5826 5827 5827 5827 5826 5826 5826 5826 5826 5826 5826 5826 5825 5825 5825 5825 5825 5824 5824 5824 5824 5824 5824 5824 5824 5824 5823 5822 5820 5819 5819 5818 5817 5816 5815 5814 5813 5812 5811 5809 5809 5807 5806 5806 5805 5804 5803 5802 5801 5800 5799
5799 5799 5801 5802 5803 5804 5805 5806 5806 5806 5806 5807 5807 5808 5809 5810 5810 5811 5811 5811 5812 5812 5812 5813 5814 5815 5815 5816 5816 5816 5817 5817 5817 5818 5818 5818 5819 5819 5819 5819 5819 5820 5821 5821 5821 5822 5823 5823 5823 5823 5823 5824 5824 5824 5824 5824 5824 5824 5824 5824 5824 5824 5823 5823 5823 5823 5823 5823 5823 5822 5822 5822 5821 5821 5821 5821 5821 5821 5821 5820 5819 5818 5816 5815 5814 5814 5813 5812 5811 5810 5809 5807 5806 5805 5804 5804 5803 5802 5801 5800 5799 5798 5797
5795 5797 5798 5799 5800 5801 5802 5803 5803 5803 5803 5804 5804 5805 5806 5807 5808 5808 5808 5808 5809 5809 5809 5810 5811 5812 5813 5813 5813 5814 5814 5814 5814 5814 5815 5816 5816 5816 5816 5817 5817 5818 5819 5819 5819 5820 5821 5821 5821 5821 5821 5821 5822 5822 5822 5822 5822 5822 5822 5822 5821 5821 5821 5821 5820 5820 5820 5820 5820 5820 5819 5819 5819 5819 5819 5818 5819 5819 5819 5819 5818 5816 5814 5813 5812 5811 5810 5810 5809 5808 5806 5805 5804 5803 5802 5801 5800 5799 5799 5798 5797 5796 5795
5793 5794 5795 5796 5797 5798 5799 5800 5800 5800 5800 5801 5801 5802 5803 5804 5804 5805 5805 5805 5805 5806 5807 5808 5809 5809 5810 5810 5810 5810 5810 5811 5811 5812 5813 5813 5814 5814 5814 5815 5816 5816 5817 5817 5818 5818 5819 5819 5818 5818 5818 5819 5819 5820 5820 5820 5819 5819 5819 5819 5819 5819 5819 5818 5818 5818 5818 5818 5818 5818 5817 5817 5816 5816 5816 5816 5816 5816 5816 5816 5816 5815 5813 5811 5810 5809 5808 5807 5806 5805 5804 5803 5802 5801 5800 5799 5798 5798 5797 5796 5795 5794 5793
5790 5791 5792 5793 5794 5795 5796 5797 5797 5797 5797 5798 5798 5799 5800 5801 5801 5802 5802 5802 5803 5803 5804 5805 5806 5806 5807 5807 5807 5807 5808 5808 5809 5810 5811 5811 5812 5812 5812 5814 5814 5815 5815 5815 5815 5816 5816 5817 5817 5816 5816 5816 5817 5817 5817 5818 5817 5817 5817 5817 5817 5816 5816 5816 5815 5815 5816 5816 5815 5815 5814 5814 5814 5814 5814 5813 5813 5813 5813 5813 5813 5813 5812 5810 5808 5807 5805 5804 5803 5802 5801 5800 5799 5799 5798 5797 5796 5795 5795 5794 5793 5792 5791
5787 5788 5789 5790 5791 5792 5793 5793 5794 5794 5794 5795 5795 5796 5797 5798 5798 5798 5799 5799 5800 5801 5802 5802 5803 5804 5804 5804 5804 5804 5805 5806 5807 5809 5809 5810 5810 5811 5811 5812 5812 5812 5812 5812 5813 5813 5814 5814 5815 5815 5815 5815 5815 5814 5815 5815 5815 5815 5814 5814 5814 5814 5814 5813 5813 5813 5813 5813 5813 5813 5812 5812 5811 5811 5811 5811 5811 5810 5810 5810 5810 5810 5809 5808 5807 5805 5804 5802 5801 5800 5799 5798 5797 5796 5796 5795 5794 5794 5793 5792 5791 5790 5790
5784 5785 5786 5787 5788 5789 5789 5790 5790 5791 5791 5792 5792 5793 5794 5794 5794 5795 5795 5796 5797 5798 5799 5799 5800 5800 5801 5802 5802 5802 5803 5804 5805 5807 5808 5808 5808 5809 5809 5809 5809 5809 5810 5809 5810 5810 5810 5811 5812 5812 5813 5814 5814 5813 5813 5813 5813 5813 5812 5812 5812 5812 5811 5811 5811 5810 5811 5811 5811 5810 5810 5809 5809 5809 5809 5808 5808 5808 5807 5807 5807 5806 5806 5805 5804 5803 5801 5800 5798 5797 5796 5795 5795 5794 5794 5793 5792 5792 5791 5790 5789 5789 5788
5781 5783 5784 5784 5785 5786 5786 5786 5787 5787 5788 5789 5789 5790 5790 5790 5791 5791 5793 5794 5794 5795 5796 5797 5797 5798 5798 5799 5800 5800 5801 5802 5803 5804 5805 5805 5805 5806 5806 5806 5806 5806 5807 5807 5807 5807 5808 5808 5809 5809 5809 5810 5811 5812 5812 5811 5811 5811 5810 5809 5809 5809 5809 5809 5808 5808 5808 5808 5808 5808 5807 5807 5807 5806 5806 5806 5805 5805 5804 5804 5804 5803 5803 5802 5801 5799 5798 5797 5796 5794 5794 5793 5792 5792 5791 5791 5790 5790 5789 5788 5788 5787 5786
5779 5780 5781 5781 5782 5782 5783 5783 5784 5784 5784 5785 5786 5787 5787 5787 5788 5789 5790 5791 5792 5792 5793 5794 5794 5795 5796 5796 5797 5798 5799 5799 5800 5801 5802 5802 5802 5803 5803 5803 5803 5803 5804 5804 5804 5804 5805 5805 5805 5805 5806 5806 5807 5809 5810 5809 5809 5809 5808 5808 5808 5807 5807 5807 5806 5806 5805 5805 5805 5805 5805 5804 5804 5804 5803 5803 5803 5802 5802 5801 5801 5800 5800 5799 5798 5797 5795 5794 5793 5792 5791 5790 5790 5789 5789 5789 5788 5788 5787 5786 5786 5785 5784
5776 5777 5778 5779 5779 5779 5780 5780 5780 5781 5782 5782 5783 5784 5784 5785 5785 5786 5787 5788 5789 5789 5790 5791 5792 5792 5793 5794 5794 5795 5796 5796 5796 5797 5798 5799 5799 5800 5801 5800 5800 5801 5801 5801 5801 5802 5802 5802 5802 5802 5802 5802 5803 5804 5805 5806 5807 5807 5806 5806 5805 5805 5805 5804 5804 5804 5803 5803 5803 5803 5803 5802 5802 5801 5801 5800 5800 5799 5799 5799 5798 5798 5797 5796 5795 5794 5793 5792 5791 5789 5789 5788 5787 5787 5787 5787 5786 5785 5785 5784 5784 5783 5782
5774 5775 5776 5777 5777 5778 5778 5779 5779 5780 5781 5781 5782 5782 5782 5783 5784 5784 5784 5785 5786 5786 5787 5788 5789 5789 5790 5791 5791 5792 5793 5793 5793 5793 5794 5795 5796 5797 5798 5798 5798 5798 5798 5798 5798 5799 5799 5800 5800 5799 5799 5799 5799 5800 5800 5802 5803 5803 5803 5803 5803 5803 5803 5803 5802 5801 5801 5801 5800 5800 5800 5800 5799 5799 5798 5798 5797 5797 5796 5796 5795 5794 5794 5793 5792 5791 5790 5789 5789 5788 5787 5786 5785 5785 5784 5784 5784 5783 5783 5782 5781 5781 5779